Location: Rio Negrinho
(26.2394°S, 49.4999°W)
Time: 22:57:21
(UTC+00:00)

NOAA 12 - Pass Details

Date: 07 June 2020
Orbit: 796 x 814 km, 98.5° (Epoch: 10 July)

Event Time Altitude Azimuth Distance (km) Brightness Sun altitude
Rises 09:14:52 0° 9° (N) 3,321 7.7 -10.3°
Reaches altitude 10° 09:17:12 10° 8° (N) 2,396 7.0 -9.8°
Maximum altitude 09:22:30 75° 282° (WNW) 846 4.1 -8.7°
Drops below altitude 10° 09:27:51 10° 196° (SSW) 2,416 6.2 -7.6°
Sets 09:30:13 0° 194° (SSW) 3,351 7.0 -7.1°
